www.srh.weather.gov   
NOAA logo - Click to go to the NOAA homepage   NWS logo
Other Public Products
Enter Your "City, ST" or zip code   
Current Version              Previous Version:    01  02  03  04  05  06  07  08  09  10  11  12  13  14  15  16  17  18  19  20  21  22  23  24  25  26  27  28  29  30  
   31  32  33  34  35  36  37  38  39  40  41  42  43  44  45  46  47  48  49  50  51  52  53  54  55  56  57  58  59  60  
[Printable]
294
FPUS83 KFGF 011910
OPUFGF
PRAIRIE TO PINES WEATHER ROUNDUP
NATIONAL WEATHER SERVICE EASTERN NORTH DAKOTA/GRAND FORKS ND
200 PM CDT MON SEP 01 2014

 **SATELLITE DATA USED TO AUGMENT SKY COVER AT AUTOMATED STATIONS**
 *****  WEATHER ACROSS EASTERN NORTH DAKOTA  *****

CITY           SKY/WX    TMP DP  RH WIND       PRES   REMARKS
GRAND FORKS    PTSUNNY   72  55  56 W8        29.69F THUNDER
GRAND FORKS AF DRIZZLE   70  59  68 NW5       29.71S
GRAND CITY NWS   N/A     73 N/A N/A W1          N/A
BUXTON         NOT AVBL
DEVILS LAKE    CLOUDY    64  50  59 NW7       29.74S
FARGO          PTSUNNY   74  56  53 W7        29.73F
WAHPETON ARPT  MOCLDY    72  54  53 W8        29.76S
$$

 *****  WEATHER ACROSS CENTRAL AND WESTERN NORTH DAKOTA  *****

CITY           SKY/WX    TMP DP  RH WIND       PRES   REMARKS
JAMESTOWN      MOSUNNY   72  56  57 W10       29.77S
BISMARCK       SUNNY     73  51  46 NW13      29.82S
MINOT          MOSUNNY   71  45  39 W15       29.79S
MINOT AFB      MOSUNNY   70  48  45 W14       29.78S
GARRISON         N/A     67  48  50 NW10G20   29.82S
WILLISTON      PTSUNNY   71  42  35 W7        29.84S
DICKINSON      MOSUNNY   68  47  46 NW10      29.86S
HETTINGER      MOSUNNY   70  47  43 NW12G25   29.89S
$$

 *****  OTHER OBSERVATIONS NORTHEAST NORTH DAKOTA  *****

CITY           SKY/WX    TMP DP  RH WIND       PRES   REMARKS
WALHALLA       FAIR      72  50  46 NW9       29.69S
LANGDON        FAIR      64  55  72 W12       29.73S
CAVALIER       FAIR      72  54  53 W6        29.68F
GRAFTON        FAIR      73  50  43 NW6       29.69S
CANDO          FAIR      68  48  49 NW14      29.76S
FORT TOTTEN    NOT AVBL
ROLLA          FAIR      66  50  55 W9        29.77S
RUGBY          FAIR      66  50  55 NW13G18   29.78S
 ***** THE ABOVE OBSERVATIONS ARE NON NWS ARE NOT QUALITY
        CONTROLLED AND MAY MIS-REPORT RAIN FOR SNOW...
$$

 *****  OTHER OBSERVATIONS SOUTHEAST NORTH DAKOTA *****

CITY           SKY/WX    TMP DP  RH WIND       PRES   REMARKS
COOPERSTOWN    NOT AVBL
VALLEY CITY    FAIR      73  55  53 W12G18    29.76S
OAKES            N/A     75  55  50 SW10      29.77S
GWINNER        CLEAR     75  57  53 SW12      29.78S
BUFFALO        NOT AVBL
WYNDMERE       NOT AVBL
 ***** THE ABOVE OBSERVATIONS ARE NON NWS ARE NOT QUALITY
       CONTROLLED AND MAY MIS-REPORT RAIN FOR SNOW...
$$

  *****  WEATHER ACROSS NORTHERN MINNESOTA  *****

CITY           SKY/WX    TMP DP  RH WIND       PRES   REMARKS
FLAG ISLAND    SUNNY     66  54  63 NW6       29.65S
WARROAD        MOSUNNY   72  55  56 W8        29.68S
ROSEAU         SUNNY     72  55  56 W7        29.68F
HALLOCK        SUNNY     73  55  53 SW9       29.68S
THF RVR FALLS  MOSUNNY   72  54  53 W7        29.72S
HALSTAD          N/A     73  50  43 W3          N/A
FOSSTON        SUNNY     72  48  43 NW7       29.74S
BAUDETTE       SUNNY     69  53  56 NW9       29.67S
WASKISH        MOSUNNY   70  55  60 W3        29.69S
CROOKSTON      MOSUNNY   73  52  46 NW6       29.71F
$$
  *****  WEATHER ACROSS CENTRAL AND WEST MINNESOTA  *****

CITY           SKY/WX    TMP DP  RH WIND       PRES   REMARKS
BEMIDJI        MOSUNNY   69  51  52 NW12G18   29.72S
PARK RAPIDS    SUNNY     72  51  47 NW15      29.74R
WADENA         SUNNY     72  54  53 W8        29.75S
DETROIT LAKES  MOSUNNY   70  54  56 NW8       29.77S
MOORHEAD       PTSUNNY   72  57  60 W6        29.75S
FERGUS FALLS   SUNNY     70  54  56 W9        29.76S
ELBOW LAKE     MOCLDY    72  56  57 W10       29.78R
MORRIS MN      SUNNY     75  57  53 W9        29.79R
STAPLES        SUNNY     73  50  43 W14       29.75R
WHEATON        SUNNY     72  55  56 W5        29.80R
$$
  *****  WEATHER ELSEWHERE ACROSS MINNESOTA  *****

CITY           SKY/WX    TMP DP  RH WIND       PRES   REMARKS
DULUTH         PTSUNNY   69  54  58 NW13      29.66S
INTRNTL FALLS  CLOUDY    64  56  75 W10G18    29.66R
ELY            PTSUNNY   66  57  72 W7        29.63S
CLOQUET        PTSUNNY   68  54  60 W14G21    29.68S
BRAINERD       SUNNY     71  51  49 W14       29.73R
HIBBING        PTSUNNY   70  51  51 W10G21    29.67S
ALEXANDRIA     MOSUNNY   72  55  55 W10G18    29.79R
SAINT CLOUD    MOSUNNY   76  55  48 W16       29.75R
MINNEAPOLIS    PTSUNNY   76  57  51 W15       29.73S
$$

  *****  WEATHER ACROSS SOUTH DAKOTA  *****

CITY           SKY/WX    TMP DP  RH WIND       PRES   REMARKS
SIOUX FALLS    MOSUNNY   75  60  59 NW12      29.84S
BROOKINGS      NOT AVBL
WATERTOWN      SUNNY     74  54  49 W13       29.83R
HURON          MOSUNNY   75  54  47 VRB7      29.83F
SISSETON         N/A     76  55  48 VRB5      29.77S
ABERDEEN       SUNNY     75  54  47 W8        29.80S
MITCHELL       MOSUNNY   75  58  55 NW9       29.86S
PIERRE         PTSUNNY   76  55  48 SW7G17    29.82F
MOBRIDGE       SUNNY     74  54  49 NW7       29.80F
RAPID CITY     PTSUNNY   72  47  40 N12       29.92F
$$

  *****  SOME WEATHER IN NEARBY STATES *****

CITY           SKY/WX    TMP DP  RH WIND       PRES   REMARKS
GLASGOW MT     SUNNY     68  48  48 SW7       29.87F
GREAT FALLS MT MOSUNNY   69  37  30 SW20      29.95F
CHEYENNE WY    CLOUDY    67  29  24 VRB7      30.06F
SCOTTSBLUFF NE SUNNY     76  40  27 W14G23    29.95F
OMAHA NE       MOSUNNY   78  61  55 W7G17     29.87F
DES MOINES IA  MOSUNNY   81  63  54 W18       29.81R
DAVENPORT IA   MOSUNNY   80  66  62 W15       29.79S
CHICAGO IL     MOSUNNY   81  63  54 SW17G29   29.77S
EAU CLAIRE WI  MOSUNNY   75  60  59 NW13      29.70R
LA CROSSE WI   LGT RAIN  68  62  81 NW16G26   29.73R
$$

  *****  SOME NATIONAL WEATHER *****

CITY           SKY/WX    TMP DP  RH WIND       PRES   REMARKS
LA GUARDIA NY  NOT AVBL
RALEIGH NC     PTSUNNY   91  71  51 SW9       30.06F HX  97
ATLANTA GA     PTSUNNY   83  72  69 W5        30.12F
NEW ORLEANS LA PTSUNNY   90  75  61 S15       30.03F THUNDER HX 100
OKLAHOMA CITY  MOSUNNY   94  68  42 S21G31    29.83F HX  98
ALBUQUERQUE NM MOSUNNY   85  38  18 VRB5      30.11F
SALT LAKE CITY MOSUNNY   75  35  23 NW8       30.09F
LOS ANGELES CA MOSUNNY   77  64  64 W10       29.84F
BOISE ID       SUNNY     70  39  32 NW9       30.10F
SEATTLE WA     MOSUNNY   68  54  60 S9        30.10F
$$

*** WEATHER ACROSS MANITOBA...SASKATCHEWAN AND ONTARIO ***
                ***ONTARIO***

CITY           SKY/WX    TMP DP  RH WIND       PRES   REMARKS
GERALDTON      CLOUDY    66  63  88 SW12      29.47F
THUNDER BAY    CLOUDY    70  64  83 SW10      29.53R
SIOUX LOOKOUT  PTSUNNY   64  55  72 NW13      29.57S
TORONTO        PTSUNNY   81  70  69 S14G20    29.85F
BIG TROUT LK   CLOUDY    57  54  88 N6        29.44S
PICKLE LAKE    LGT RAIN  61  57  88 NW12      29.48S
DRYDEN         MOSUNNY   66  55  68 W13G20    29.60S
KENORA         PTSUNNY   66  52  59 NW8       29.65R
$$
                *** MANITOBA***

CITY           SKY/WX    TMP DP  RH WIND       PRES   REMARKS
BRANDON        PTSUNNY   72  46  40 W18       29.72F
DAUPHIN        SUNNY     70  52  52 W16G24    29.66S
ISLAND LAKE    MOSUNNY   68  52  56 S6        29.52F
PILOT MOUND      N/A     68  52  56 W7          N/A
THE PAS        PTSUNNY   59  50  72 W12       29.62S
THOMPSON       MOSUNNY   66  48  52 NW9       29.53F
WINNIPEG       MOSUNNY   73  54  49 W13       29.66R
CHURCHILL      CLOUDY    52  52 100 N6        29.50S
GILLAM         MOSUNNY   61  57  88 NW7       29.49F
$$
                ***SASKATCHEWAN***

CITY           SKY/WX    TMP DP  RH WIND       PRES   REMARKS
ESTEVAN        PTSUNNY   66  45  45 W9        29.81S
KINDERSLEY     MOSUNNY   68  37  32 W8        29.79F
LLOYDMINSTER   PTSUNNY   66  39  37 W20       29.74F
PRINCE ALBERT  MOSUNNY   66  46  48 W16G24    29.70F
REGINA         MOSUNNY   66  46  48 NW16      29.79S
YORKTON        PTSUNNY   66  43  42 W17G24    29.72S
N. BATTLEFORD  SUNNY     68  45  42 W10G21    29.76F



National Weather Service
Disclaimer
Last Modified: August 31, 2005
Privacy Policy